Location: City of Moscow
(46.7306°N, 116.9989°W)
Time: 05:55:41
(UTC+00:00)

CUBEBUG 2 - Visible Passes

Search period start: 19 April 2026 00:00
Search period end: 29 April 2026 00:00
Orbit: 548 x 627 km, 97.9° (Epoch: 18 April)

Date Brightness Start Highest point End Pass type
(mag) Time Alt. Az. Time Alt. Az. Time Alt. Az.
19 Apr ? 09:31:15 10° NE 09:34:51 27° E 09:34:52 27° E visible
19 Apr ? 11:06:37 10° N 11:10:18 30° WNW 11:11:22 26° W visible
20 Apr ? 09:38:21 10° NNE 09:42:07 32° E 09:42:16 31° E visible
20 Apr ? 11:13:59 10° N 11:17:28 26° WNW 11:18:46 22° W visible
21 Apr ? 09:45:28 10° NNE 09:49:23 37° E 09:49:39 37° ESE visible
21 Apr ? 11:21:22 10° NNW 11:24:37 22° WNW 11:26:09 18° W visible
22 Apr ? 09:52:37 10° NNE 09:56:38 44° E 09:57:02 43° ESE visible
22 Apr ? 11:28:47 10° NNW 11:31:46 19° WNW 11:33:31 15° W visible
23 Apr ? 09:59:46 10° NNE 10:03:52 53° E 10:04:24 49° SE visible
23 Apr ? 11:36:15 10° NNW 11:38:53 17° WNW 11:40:54 12° W visible
24 Apr ? 10:06:57 10° NNE 10:11:05 64° ESE 10:11:46 53° SSE visible
24 Apr ? 11:43:48 10° NNW 11:46:01 14° WNW 11:48:12 10° W visible
25 Apr ? 10:14:09 10° NNE 10:18:18 77° ESE 10:19:08 54° S visible
25 Apr ? 11:51:27 10° NW 11:53:07 12° WNW 11:54:46 10° W visible
26 Apr ? 10:21:21 10° NNE 10:25:29 89° WNW 10:26:29 51° SSW visible
26 Apr ? 11:59:29 10° NW 12:00:13 10° WNW 12:00:56 10° WNW visible
27 Apr ? 08:55:48 10° ENE 08:56:40 11° E 08:57:21 10° E visible
27 Apr ? 10:28:34 10° N 10:32:41 74° WNW 10:33:50 45° SSW visible
28 Apr ? 09:02:08 10° ENE 09:03:57 13° E 09:04:42 12° E visible
28 Apr ? 10:35:48 10° N 10:39:51 62° WNW 10:41:11 38° SW visible
